Regional Weather Roundup
Issued by NWS

Home | Current Version | Previous Version | Text Only | Print | Product List | Glossary Off
Versions: 1 2 3 4 5 6 7 8 9 10 11 12 13 14 15 16 17 18 19 20 21 22 23 24 25 26 27 28 29 30 31 32 33 34 35 36 37 38 39 40 41 42 43 44 45 46 47 48 49 50

875
ASUS45 KCYS 100010
RWRWY

WYOMING REGIONAL WEATHER ROUNDUP
NATIONAL WEATHER SERVICE CHEYENNE WY
500 PM MST TUE FEB 09 2016

NOTE:  "FAIR" INDICATES FEW OR NO CLOUDS BELOW 12,000 FEET
WITH NO SIGNIFICANT WEATHER AND/OR OBSTRUCTIONS TO VISIBILITY.

WYZ001-100100-
YELLOWSTONE NATIONAL PARK

CITY           SKY/WX    TMP DP  RH WIND       PRES   REMARKS
LK YELLOWSTONE   N/A     29  20  69 CALM      30.47S
6HR MIN TEMP:  17; 6HR MAX TEMP:  37;

W YELLOWSTONE  NOT AVBL

$$
WYZ002>013-054>058-071-098>099-100100-
NORTHERN WYOMING

CITY           SKY/WX    TMP DP  RH WIND       PRES   REMARKS
JACKSON        CLEAR     27  21  80 CALM      30.47F
CODY           FAIR      46  25  42 N5        30.25S
GREYBULL       FAIR      48  27  44 S5        30.25F
6HR MIN TEMP:  32; 6HR MAX TEMP:  50;

WORLAND        FAIR      43  27  53 NE5       30.25F
6HR MIN TEMP:  33; 6HR MAX TEMP:  48;

SHERIDAN       CLEAR     57  23  26 CALM      30.14F
6HR MIN TEMP:  53; 6HR MAX TEMP:  60;

BUFFALO        FAIR      54  24  31 NW7       30.21F
6HR MIN TEMP:  49; 6HR MAX TEMP:  56;

GILLETTE       FAIR      46  30  53 W7        30.18S
6HR MIN TEMP:  45; 6HR MAX TEMP:  52;

HULETT         FAIR      48  30  49 SW7       30.15F
NEWCASTLE      FAIR      46  28  49 NW8       30.17F

$$
WYZ014>020-022>026-101>103-100100-
CENTRAL WYOMING

CITY           SKY/WX    TMP DP  RH WIND       PRES   REMARKS
BIG PINEY      FAIR      44  27  51 CALM      30.41S
6HR MIN TEMP:  34; 6HR MAX TEMP:  47;

PINEDALE       MOCLDY    37  27  65 NW10      30.40S WCI  30
DUBOIS         FAIR      46   9  21 NW22      30.35F
LANDER         FAIR      37  22  54 NW3       30.30S
6HR MIN TEMP:  29; 6HR MAX TEMP:  39;

RIVERTON       FAIR      40  22  48 CALM      30.32F
6HR MIN TEMP:  25; 6HR MAX TEMP:  41;

CASPER         FAIR      39  24  55 SW29G44   30.28S WCI  27
6HR MIN TEMP:  36; 6HR MAX TEMP:  39;

DOUGLAS        FAIR      43  28  55 NW10        N/A

$$
WYZ021-027>030-104>119-100100-
SOUTHERN WYOMING

CITY           SKY/WX    TMP DP  RH WIND       PRES   REMARKS
EVANSTON       FAIR      37  23  56 SW5       30.47S WCI  33
6HR MIN TEMP:  29; 6HR MAX TEMP:  38;

KEMMERER       FAIR      34  27  75 W6        30.45S WCI  29
FORT BRIDGER   CLEAR     41  27  56 W16       30.47S
ROCK SPRINGS   FAIR      39  27  62 SW18      30.41S WCI  30
6HR MIN TEMP:  34; 6HR MAX TEMP:  40;

DIXON          FAIR      26  17  70 CALM      30.49S
RAWLINS        FAIR      35  22  58 SW16G23   30.39S WCI  25
6HR MIN TEMP:  33; 6HR MAX TEMP:  37;

SARATOGA       FAIR      30  23  74 SE3       30.42F
LARAMIE        FAIR      39  22  50 N9        30.33R WCI  33
6HR MIN TEMP:  32; 6HR MAX TEMP:  44;

CHEYENNE       FAIR      45  22  40 NW20G26   30.26F
6HR MIN TEMP:  44; 6HR MAX TEMP:  47;

TORRINGTON     FAIR      49  28  44 W13       30.19S
6HR MIN TEMP:  46; 6HR MAX TEMP:  52;

PINE BLUFFS    FAIR      41  30  65 W7        30.25S

$$




USA.gov is the U.S. government's official web portal to all federal, state and local government web resources and services.